Language: 


Des rapports , des résumés tant et plus, au choix de chacun....


Données statistiques de la station
Quotidien Rapport Janvier 21, 2018 Unités:  Anglais    Métrique   les deux
« Précédent Jour
Suivant Jour »
Quotidien Hebdomadaire Mensuel Annuel Actuel
  Haut: Bas: Moyen:
Température: TemperatureC °F 1.2 °F 2.8 °F
Pt de rosée: DewpointC °F 1.0 °F 2.9 °F
Humidité: Humidity % 94 % 98 %
Vitesse du vent: WindSpeedKMH mph 0.0 mph 5.6 mph
Rafales: WindSpeedGustKMH mph - -
Vent:- - SSW
Pression: PressurehPa in 1006.0 in -
Précipitation: 15.0 in    
Historical Graphs
 
 
Données statistiques pour Janvier 21, 2018
Heure Température Point de rosée Pression Vent Vitesse du vent Refales Humidité Pluie (taux horaire)
TemperatureC °F DewpointC °F PressurehPa in Calm     Humidity % HourlyPrecipMM in
00:03 3.3 °F 3.0 °F 1006.0 in Calm     98 % 0.0 in
00:08 3.3 °F 3.0 °F 1006.0 in Calm   2.1 mph 98 % 0.0 in
00:13 3.3 °F 3.0 °F 1006.0 in Calm   2.1 mph 98 % 0.0 in
00:18 3.3 °F 3.0 °F 1007.0 in Calm     98 % 0.0 in
00:23 3.3 °F 3.0 °F 1007.0 in Calm   2.1 mph 98 % 0.0 in
00:28 3.3 °F 3.0 °F 1007.0 in Calm   2.1 mph 98 % 0.0 in
00:33 3.4 °F 3.0 °F 1007.0 in Calm     98 % 0.0 in
00:38 3.4 °F 3.0 °F 1007.0 in NW 4.3 mph 4.3 mph 98 % 0.0 in
00:43 3.4 °F 3.0 °F 1007.0 in West 1.8 mph 4.3 mph 98 % 0.0 in
00:48 3.5 °F 4.0 °F 1006.0 in WNW 2.6 mph 5.8 mph 98 % 0.0 in
00:53 3.6 °F 4.0 °F 1006.0 in NNW 5.0 mph 5.8 mph 98 % 0.0 in
00:58 3.7 °F 4.0 °F 1006.0 in Calm   5.0 mph 98 % 0.0 in
01:03 3.8 °F 4.0 °F 1008.0 in North 6.4 mph 8.7 mph 98 % 0.3 in
01:08 3.8 °F 4.0 °F 1008.0 in WNW 2.6 mph 8.7 mph 98 % 0.3 in
01:13 3.8 °F 4.0 °F 1008.0 in Calm   6.4 mph 98 % 0.3 in
01:18 3.8 °F 4.0 °F 1008.0 in Calm   6.1 mph 98 % 0.3 in
01:23 3.9 °F 4.0 °F 1008.0 in Calm   4.0 mph 98 % 0.3 in
01:28 3.8 °F 4.0 °F 1008.0 in West 1.4 mph 1.8 mph 98 % 0.3 in
01:33 3.8 °F 4.0 °F 1009.0 in Calm   2.6 mph 98 % 0.3 in
01:38 3.8 °F 4.0 °F 1009.0 in Calm   2.6 mph 98 % 0.3 in
01:43 3.8 °F 4.0 °F 1009.0 in NW 2.1 mph 5.0 mph 98 % 0.3 in
01:48 3.7 °F 4.0 °F 1009.0 in Calm   5.5 mph 98 % 0.3 in
01:53 3.6 °F 4.0 °F 1009.0 in NW 1.8 mph 6.9 mph 98 % 0.3 in
01:58 3.6 °F 4.0 °F 1009.0 in Calm   6.9 mph 98 % 0.3 in
02:03 3.5 °F 4.0 °F 1009.0 in Calm   5.5 mph 98 % 0.0 in
02:08 3.5 °F 4.0 °F 1009.0 in NNW 6.1 mph 6.9 mph 98 % 0.0 in
02:13 3.5 °F 4.0 °F 1009.0 in Calm   7.6 mph 98 % 0.0 in
02:18 3.4 °F 3.0 °F 1009.0 in NW 1.4 mph 7.6 mph 98 % 0.0 in
02:23 3.3 °F 3.0 °F 1009.0 in Calm   6.1 mph 98 % 0.0 in
02:28 3.3 °F 3.0 °F 1009.0 in NW 4.3 mph 6.4 mph 98 % 0.0 in
02:33 3.3 °F 3.0 °F 1010.0 in Calm   6.4 mph 98 % 0.0 in
02:38 3.1 °F 3.0 °F 1010.0 in Calm   5.5 mph 98 % 0.0 in
02:43 3.1 °F 3.0 °F 1010.0 in Calm   4.3 mph 98 % 0.0 in
02:48 3.0 °F 3.0 °F 1010.0 in WNW 3.2 mph 5.5 mph 98 % 0.0 in
02:53 2.9 °F 3.0 °F 1010.0 in Calm   5.5 mph 98 % 0.0 in
02:58 2.8 °F 3.0 °F 1010.0 in Calm   4.3 mph 98 % 0.0 in
03:03 2.8 °F 3.0 °F 1010.0 in West 4.0 mph 6.1 mph 98 % 0.0 in
03:08 2.8 °F 3.0 °F 1010.0 in West 4.7 mph 6.4 mph 98 % 0.0 in
03:13 2.7 °F 3.0 °F 1011.1 in Calm   6.4 mph 98 % 0.0 in
03:18 2.6 °F 3.0 °F 1011.1 in Calm   6.1 mph 98 % 0.0 in
03:23 2.6 °F 3.0 °F 1011.1 in West 5.0 mph 6.1 mph 98 % 0.0 in
03:28 2.6 °F 3.0 °F 1011.1 in Calm   5.0 mph 98 % 0.0 in
03:33 2.5 °F 3.0 °F 1011.1 in Calm   5.0 mph 98 % 0.0 in
03:39 2.4 °F 3.0 °F 1011.1 in Calm   4.3 mph 98 % 0.0 in
03:44 2.3 °F 3.0 °F 1010.0 in Calm   6.4 mph 98 % 0.0 in
03:49 2.2 °F 2.0 °F 1010.0 in West 5.5 mph 6.4 mph 98 % 0.0 in
03:54 2.1 °F 2.0 °F 1010.0 in West 1.4 mph 6.4 mph 98 % 0.0 in
03:59 2.1 °F 2.0 °F 1010.0 in Calm   6.4 mph 98 % 0.0 in
04:04 2.1 °F 2.0 °F 1010.0 in West 6.1 mph 6.4 mph 98 % 0.0 in
04:09 2.1 °F 2.0 °F 1010.0 in Calm   7.9 mph 98 % 0.0 in
04:14 2.1 °F 2.0 °F 1011.1 in Calm   7.9 mph 98 % 0.0 in
04:19 2.1 °F 2.0 °F 1011.1 in West 2.6 mph 4.0 mph 98 % 0.0 in
04:24 2.0 °F 2.0 °F 1011.1 in Calm   4.7 mph 98 % 0.0 in
04:29 2.0 °F 2.0 °F 1011.1 in Calm   4.7 mph 98 % 0.0 in
04:34 2.0 °F 2.0 °F 1011.1 in Calm     98 % 0.0 in
04:39 1.9 °F 2.0 °F 1011.1 in West 6.1 mph 6.1 mph 98 % 0.0 in
04:44 1.9 °F 2.0 °F 1012.1 in West 5.5 mph 7.6 mph 98 % 0.0 in
04:49 1.9 °F 2.0 °F 1012.1 in Calm   7.6 mph 98 % 0.0 in
04:54 2.0 °F 2.0 °F 1012.1 in West 5.0 mph 6.9 mph 98 % 0.0 in
04:59 2.0 °F 2.0 °F 1012.1 in WNW 1.8 mph 6.9 mph 98 % 0.0 in
05:04 2.0 °F 2.0 °F 1012.1 in Calm   4.7 mph 98 % 0.0 in
05:09 1.9 °F 2.0 °F 1012.1 in Calm   4.3 mph 98 % 0.0 in
05:14 1.9 °F 2.0 °F 1013.1 in Calm   2.6 mph 98 % 0.0 in
05:19 1.9 °F 2.0 °F 1013.1 in Calm     98 % 0.0 in
05:24 1.8 °F 2.0 °F 1013.1 in Calm     98 % 0.0 in
05:29 1.7 °F 2.0 °F 1013.1 in Calm   2.6 mph 98 % 0.0 in
05:34 1.6 °F 2.0 °F 1013.1 in WNW 5.0 mph 5.0 mph 98 % 0.0 in
05:39 1.6 °F 2.0 °F 1013.1 in Calm   5.0 mph 98 % 0.0 in
05:44 1.5 °F 2.0 °F 1013.1 in Calm   5.0 mph 98 % 0.0 in
05:49 1.4 °F 1.0 °F 1013.1 in Calm   4.3 mph 98 % 0.0 in
05:54 1.4 °F 1.0 °F 1013.1 in Calm   4.3 mph 98 % 0.0 in
05:59 1.4 °F 1.0 °F 1014.1 in Calm   3.2 mph 98 % 0.0 in
06:04 1.4 °F 1.0 °F 1014.1 in Calm     98 % 0.0 in
06:07 1.4 °F 1.0 °F 1014.1 in Calm     98 % 0.0 in
06:12 1.4 °F 1.0 °F 1014.1 in Calm   4.0 mph 98 % 0.3 in
06:17 1.3 °F 1.0 °F 1013.1 in Calm   4.0 mph 98 % 0.3 in
06:22 1.3 °F 1.0 °F 1013.1 in Calm   2.6 mph 98 % 0.3 in
06:27 1.2 °F 1.0 °F 1013.1 in WSW 6.4 mph 6.4 mph 98 % 0.3 in
06:32 1.3 °F 1.0 °F 1013.1 in WSW 6.4 mph 7.9 mph 98 % 0.3 in
06:47 1.6 °F 2.0 °F 1013.1 in Calm   6.9 mph 98 % 0.3 in
06:52 1.6 °F 2.0 °F 1013.1 in Calm   6.4 mph 98 % 0.3 in
06:57 1.6 °F 2.0 °F 1013.1 in West 2.1 mph 5.0 mph 98 % 0.3 in
07:02 1.6 °F 2.0 °F 1013.1 in Calm   5.0 mph 98 % 0.3 in
07:03 1.6 °F 2.0 °F 1013.1 in Calm   5.0 mph 98 % 0.3 in
07:08 1.6 °F 2.0 °F 1013.1 in West 3.5 mph 6.1 mph 98 % 0.0 in
07:13 1.6 °F 2.0 °F 1013.1 in Calm   6.1 mph 98 % 0.0 in
07:18 1.7 °F 2.0 °F 1013.1 in West 2.1 mph 4.0 mph 98 % 0.0 in
07:28 1.7 °F 2.0 °F 1013.1 in West 6.4 mph 6.4 mph 98 % 0.0 in
07:33 1.7 °F 2.0 °F 1014.1 in West 4.3 mph 6.4 mph 98 % 0.0 in
07:43 1.7 °F 2.0 °F 1014.1 in Calm   6.4 mph 98 % 0.0 in
07:48 1.6 °F 2.0 °F 1014.1 in West 5.8 mph 6.1 mph 98 % 0.0 in
07:53 1.7 °F 2.0 °F 1014.1 in West 3.2 mph 6.4 mph 98 % 0.0 in
07:58 1.7 °F 2.0 °F 1014.1 in Calm   6.4 mph 98 % 0.0 in
08:03 1.6 °F 2.0 °F 1015.1 in Calm   5.8 mph 98 % 0.0 in
08:08 1.4 °F 1.0 °F 1015.1 in Calm   6.4 mph 98 % 0.0 in
08:13 1.4 °F 1.0 °F 1015.1 in Calm   6.4 mph 98 % 0.0 in
08:18 1.4 °F 1.0 °F 1015.1 in Calm   5.8 mph 98 % 0.0 in
08:23 1.4 °F 1.0 °F 1015.1 in WSW 6.1 mph 6.9 mph 98 % 0.0 in
08:28 1.4 °F 1.0 °F 1015.1 in Calm   6.9 mph 98 % 0.0 in
08:34 1.5 °F 2.0 °F 1015.1 in Calm   6.9 mph 98 % 0.0 in
08:39 1.6 °F 2.0 °F 1015.1 in Calm   6.1 mph 98 % 0.0 in
08:44 1.6 °F 2.0 °F 1014.1 in Calm     98 % 0.0 in
08:49 1.6 °F 2.0 °F 1014.1 in Calm   6.9 mph 98 % 0.0 in
08:54 1.7 °F 2.0 °F 1014.1 in WSW 6.1 mph 6.9 mph 98 % 0.0 in
08:59 1.7 °F 2.0 °F 1014.1 in West 6.4 mph 7.6 mph 98 % 0.0 in
09:14 1.9 °F 2.0 °F 1015.1 in WSW 5.8 mph 6.9 mph 98 % 0.0 in
09:19 1.9 °F 2.0 °F 1015.1 in Calm   6.9 mph 98 % 0.0 in
09:24 1.9 °F 2.0 °F 1015.1 in Calm   6.9 mph 98 % 0.0 in
09:39 2.1 °F 2.0 °F 1015.1 in Calm   6.4 mph 98 % 0.0 in
09:54 2.2 °F 2.0 °F 1016.1 in Calm     98 % 0.0 in
09:59 2.3 °F 3.0 °F 1016.1 in Calm   6.9 mph 98 % 0.0 in
10:04 2.4 °F 3.0 °F 1016.1 in WSW 5.0 mph 6.9 mph 98 % 0.0 in
10:10 2.4 °F 3.0 °F 1016.1 in Calm   6.9 mph 98 % 0.0 in
10:15 2.5 °F 3.0 °F 1016.1 in Calm   6.9 mph 98 % 0.0 in
10:20 2.6 °F 3.0 °F 1016.1 in West 5.5 mph 7.9 mph 98 % 0.0 in
10:25 2.6 °F 3.0 °F 1016.1 in WSW 5.0 mph 9.3 mph 98 % 0.0 in
10:30 2.7 °F 3.0 °F 1016.1 in Calm   9.7 mph 98 % 0.0 in
10:35 2.8 °F 3.0 °F 1016.1 in Calm   9.7 mph 98 % 0.0 in
10:40 2.8 °F 3.0 °F 1016.1 in WSW 6.1 mph 9.3 mph 98 % 0.0 in
10:45 3.0 °F 3.0 °F 1016.8 in WSW 6.9 mph 9.3 mph 98 % 0.0 in
10:50 3.0 °F 3.0 °F 1016.8 in WSW 4.3 mph 9.7 mph 98 % 0.0 in
10:55 3.0 °F 3.0 °F 1016.8 in Calm   10.1 mph 98 % 0.0 in
11:00 3.0 °F 3.0 °F 1016.8 in WSW 10.1 mph 11.6 mph 98 % 0.0 in
11:05 3.0 °F 3.0 °F 1016.8 in West 9.3 mph 12.2 mph 98 % 0.0 in
11:10 3.1 °F 3.0 °F 1016.8 in WSW 6.9 mph 12.2 mph 98 % 0.0 in
11:15 3.2 °F 3.0 °F 1016.8 in West 7.6 mph 10.5 mph 98 % 0.0 in
11:20 3.3 °F 3.0 °F 1016.8 in SSW 6.9 mph 9.3 mph 98 % 0.0 in
11:25 3.3 °F 3.0 °F 1016.8 in WSW 4.0 mph 9.3 mph 98 % 0.0 in
11:30 3.4 °F 3.0 °F 1016.1 in Calm   9.3 mph 98 % 0.0 in
11:35 3.4 °F 3.0 °F 1016.1 in WSW 5.8 mph 8.7 mph 98 % 0.0 in
11:40 3.6 °F 4.0 °F 1016.1 in WSW 7.6 mph 8.7 mph 98 % 0.0 in
11:45 3.6 °F 4.0 °F 1016.8 in WSW 2.1 mph 9.3 mph 98 % 0.0 in
11:50 3.6 °F 4.0 °F 1016.8 in WSW 1.8 mph 9.3 mph 98 % 0.0 in
11:55 3.6 °F 4.0 °F 1016.8 in WSW 6.9 mph 10.5 mph 98 % 0.0 in
12:00 3.7 °F 4.0 °F 1016.1 in WSW 10.1 mph 10.5 mph 98 % 0.0 in
12:05 3.7 °F 4.0 °F 1016.1 in Calm   10.1 mph 98 % 0.0 in
12:10 3.8 °F 4.0 °F 1016.1 in Calm   10.1 mph 98 % 0.0 in
12:15 3.8 °F 4.0 °F 1016.1 in Calm   9.0 mph 98 % 0.0 in
12:20 3.8 °F 4.0 °F 1016.1 in Calm   9.0 mph 98 % 0.0 in
12:25 3.9 °F 4.0 °F 1016.1 in South 3.2 mph 7.2 mph 98 % 0.0 in
12:30 4.0 °F 4.0 °F 1016.1 in SW 6.4 mph 6.4 mph 98 % 0.0 in
12:35 4.1 °F 4.0 °F 1016.1 in WSW 2.6 mph 9.0 mph 98 % 0.0 in
12:40 4.2 °F 4.0 °F 1016.1 in SW 1.8 mph 9.0 mph 98 % 0.0 in
12:45 4.3 °F 4.0 °F 1015.1 in South 4.7 mph 6.4 mph 98 % 0.0 in
12:50 4.3 °F 4.0 °F 1015.1 in SSW 9.3 mph 10.5 mph 98 % 0.0 in
12:55 4.4 °F 4.0 °F 1015.1 in SSW 8.7 mph 10.5 mph 98 % 0.0 in
13:00 4.4 °F 4.0 °F 1015.1 in WSW 7.6 mph 10.5 mph 98 % 0.0 in
13:05 4.5 °F 5.0 °F 1015.1 in SSW 12.6 mph 12.6 mph 98 % 0.0 in
13:11 4.5 °F 5.0 °F 1015.1 in SSW 3.5 mph 13.0 mph 98 % 0.0 in
13:16 4.5 °F 5.0 °F 1015.1 in SSW 6.9 mph 13.0 mph 98 % 0.0 in
13:21 4.5 °F 5.0 °F 1015.1 in WSW 7.6 mph 15.4 mph 98 % 0.0 in
13:26 4.6 °F 5.0 °F 1015.1 in WSW 5.8 mph 15.4 mph 98 % 0.0 in
13:31 4.7 °F 5.0 °F 1015.1 in West 10.1 mph 10.1 mph 98 % 0.0 in
13:36 4.6 °F 5.0 °F 1015.1 in WSW 16.6 mph 17.7 mph 98 % 0.0 in
13:41 4.4 °F 4.0 °F 1015.1 in SW 10.5 mph 17.7 mph 98 % 0.0 in
13:46 4.4 °F 4.0 °F 1015.1 in WSW 13.0 mph 17.2 mph 98 % 0.0 in
13:51 4.4 °F 4.0 °F 1015.1 in SW 12.2 mph 13.7 mph 98 % 0.0 in
13:56 4.4 °F 4.0 °F 1015.1 in WSW 17.2 mph 17.2 mph 98 % 0.0 in
14:01 4.3 °F 4.0 °F 1015.1 in SW 13.7 mph 17.2 mph 97 % 0.0 in
14:06 4.2 °F 4.0 °F 1015.1 in WSW 11.9 mph 17.2 mph 96 % 0.0 in
14:11 4.1 °F 3.0 °F 1015.1 in WSW 11.9 mph 17.2 mph 94 % 0.0 in
14:16 4.0 °F 3.0 °F 1015.1 in SSW 9.3 mph 17.2 mph 94 % 0.0 in
14:21 3.9 °F 3.0 °F 1015.1 in WSW 15.1 mph 15.1 mph 94 % 0.0 in
14:26 3.8 °F 3.0 °F 1015.1 in SW 10.5 mph 15.1 mph 94 % 0.0 in
14:31 3.7 °F 3.0 °F 1015.1 in SSW 12.2 mph 17.2 mph 94 % 0.0 in
14:37 3.6 °F 3.0 °F 1015.1 in SW 10.5 mph 17.2 mph 94 % 0.0 in
14:42 3.5 °F 3.0 °F 1015.1 in SSW 10.1 mph 12.2 mph 95 % 0.0 in
14:47 3.4 °F 3.0 °F 1015.1 in SSW 11.6 mph 11.6 mph 95 % 0.0 in
14:52 3.3 °F 3.0 °F 1015.1 in SSW 12.6 mph 15.8 mph 95 % 0.3 in
14:57 3.2 °F 3.0 °F 1015.1 in SSW 8.7 mph 15.8 mph 96 % 0.3 in
15:02 3.0 °F 3.0 °F 1015.1 in SSW 10.1 mph 15.4 mph 96 % 0.3 in
15:07 3.0 °F 3.0 °F 1015.1 in SSW 9.7 mph 15.4 mph 96 % 0.5 in
15:12 2.9 °F 3.0 °F 1015.1 in SSW 4.7 mph 9.7 mph 97 % 0.5 in
15:17 2.8 °F 3.0 °F 1015.1 in South 8.7 mph 14.3 mph 98 % 0.5 in
15:22 2.7 °F 3.0 °F 1015.1 in South 7.9 mph 14.3 mph 98 % 0.8 in
15:27 2.7 °F 3.0 °F 1015.1 in WSW 9.7 mph 13.0 mph 98 % 0.8 in
15:32 2.6 °F 3.0 °F 1015.1 in SSE 6.4 mph 13.0 mph 98 % 0.8 in
15:37 2.6 °F 3.0 °F 1015.1 in South 9.7 mph 14.8 mph 98 % 1.3 in
15:42 2.6 °F 3.0 °F 1015.1 in SSW 6.4 mph 14.8 mph 98 % 1.3 in
15:47 2.6 °F 3.0 °F 1015.1 in SSE 4.3 mph 17.2 mph 98 % 1.3 in
15:52 2.5 °F 3.0 °F 1015.1 in SSE 7.9 mph 17.7 mph 98 % 0.8 in
15:58 2.5 °F 3.0 °F 1015.1 in SSE 9.7 mph 17.7 mph 98 % 1.3 in
16:03 2.5 °F 3.0 °F 1014.1 in SSE 10.5 mph 16.6 mph 98 % 1.3 in
16:08 2.4 °F 3.0 °F 1014.1 in South 6.4 mph 16.6 mph 98 % 1.0 in
16:13 2.4 °F 3.0 °F 1014.1 in SSE 20.9 mph 20.9 mph 98 % 1.0 in
16:18 2.4 °F 3.0 °F 1014.1 in SE 12.2 mph 20.9 mph 98 % 1.0 in
16:23 2.3 °F 3.0 °F 1014.1 in SE 9.7 mph 20.9 mph 98 % 1.0 in
16:28 2.4 °F 3.0 °F 1014.1 in SSE 9.3 mph 16.6 mph 98 % 1.0 in
16:33 2.3 °F 3.0 °F 1014.1 in SSE 13.0 mph 13.0 mph 98 % 1.0 in
16:38 2.3 °F 3.0 °F 1014.1 in Calm   16.6 mph 98 % 0.8 in
16:43 2.3 °F 3.0 °F 1014.1 in SSE 12.2 mph 16.6 mph 98 % 1.0 in
16:48 2.3 °F 3.0 °F 1014.1 in SSE 9.3 mph 14.0 mph 98 % 1.0 in
16:53 2.3 °F 3.0 °F 1014.1 in SE 12.2 mph 15.4 mph 98 % 1.0 in
16:58 2.3 °F 3.0 °F 1014.1 in SSE 6.9 mph 15.8 mph 98 % 0.8 in
17:03 2.3 °F 3.0 °F 1013.1 in SSE 8.7 mph 24.8 mph 98 % 0.8 in
17:08 2.3 °F 3.0 °F 1013.1 in SE 13.7 mph 24.8 mph 98 % 0.8 in
17:13 2.2 °F 2.0 °F 1013.1 in SE 13.7 mph 20.9 mph 98 % 0.8 in
17:18 2.2 °F 2.0 °F 1013.1 in SE 13.7 mph 13.7 mph 98 % 1.3 in
17:23 2.2 °F 2.0 °F 1013.1 in SE 13.7 mph 13.7 mph 98 % 0.8 in
17:28 2.1 °F 2.0 °F 1013.1 in SE 13.7 mph 13.7 mph 98 % 0.8 in
17:34 2.1 °F 2.0 °F 1013.1 in SE 13.7 mph 13.7 mph 98 % 0.8 in
17:39 2.1 °F 2.0 °F 1013.1 in SE 13.7 mph 13.7 mph 98 % 1.3 in
17:44 2.2 °F 2.0 °F 1013.1 in SE 13.7 mph 13.7 mph 98 % 0.8 in
17:49 2.2 °F 2.0 °F 1013.1 in SE 13.7 mph 13.7 mph 98 % 0.8 in
17:54 2.2 °F 2.0 °F 1013.1 in SE 13.7 mph 13.7 mph 98 % 0.8 in
17:59 2.3 °F 3.0 °F 1013.1 in SE 13.7 mph 13.7 mph 98 % 0.5 in
18:04 2.3 °F 3.0 °F 1013.1 in SE 13.7 mph 13.7 mph 98 % 0.5 in
18:09 2.3 °F 3.0 °F 1013.1 in SE 13.7 mph 13.7 mph 98 % 0.5 in
18:14 2.3 °F 3.0 °F 1012.1 in SE 13.7 mph 13.7 mph 98 % 0.3 in
18:19 2.3 °F 3.0 °F 1012.1 in SE 13.7 mph 13.7 mph 98 % 0.5 in
18:24 2.3 °F 3.0 °F 1012.1 in SSE 14.0 mph 14.0 mph 98 % 0.5 in
18:29 2.3 °F 3.0 °F 1011.1 in South 12.2 mph 15.1 mph 98 % 0.5 in
18:34 2.4 °F 3.0 °F 1011.1 in South 12.2 mph 15.1 mph 98 % 0.5 in
18:39 2.4 °F 3.0 °F 1011.1 in South 12.2 mph 12.2 mph 98 % 0.8 in
18:44 2.4 °F 3.0 °F 1011.1 in South 12.2 mph 12.2 mph 98 % 0.8 in
18:49 2.4 °F 3.0 °F 1011.1 in South 12.2 mph 12.2 mph 98 % 0.8 in
18:54 2.5 °F 3.0 °F 1011.1 in South 12.2 mph 12.2 mph 98 % 0.8 in
18:59 2.5 °F 3.0 °F 1011.1 in South 12.2 mph 12.2 mph 98 % 0.8 in
19:04 2.6 °F 3.0 °F 1011.1 in SSE 16.6 mph 16.6 mph 98 % 1.0 in
19:09 2.6 °F 3.0 °F 1011.1 in SSE 16.6 mph 16.6 mph 98 % 1.0 in
19:14 2.6 °F 3.0 °F 1011.1 in SE 13.7 mph 16.6 mph 98 % 1.0 in
19:19 2.6 °F 3.0 °F 1011.1 in SE 6.1 mph 16.6 mph 98 % 0.8 in
19:24 2.6 °F 3.0 °F 1011.1 in South 13.0 mph 16.6 mph 98 % 0.8 in
19:29 2.6 °F 3.0 °F 1010.0 in SSE 16.3 mph 28.0 mph 98 % 1.0 in
19:34 2.6 °F 3.0 °F 1010.0 in SSE 20.1 mph 28.0 mph 98 % 1.0 in
19:39 2.7 °F 3.0 °F 1010.0 in SSE 13.7 mph 27.4 mph 98 % 0.8 in
19:44 2.7 °F 3.0 °F 1010.0 in SSW 17.2 mph 20.1 mph 98 % 1.3 in
19:49 2.7 °F 3.0 °F 1010.0 in SSE 7.9 mph 23.0 mph 98 % 1.3 in
19:54 2.7 °F 3.0 °F 1010.0 in SSE 13.7 mph 23.0 mph 98 % 1.5 in
19:59 2.7 °F 3.0 °F 1010.0 in SSE 11.9 mph 15.8 mph 98 % 1.8 in
20:04 2.7 °F 3.0 °F 1010.0 in SSE 11.9 mph 13.7 mph 98 % 1.8 in
20:09 2.7 °F 3.0 °F 1010.0 in SSE 5.8 mph 11.9 mph 98 % 1.8 in
20:14 2.7 °F 3.0 °F 1009.0 in SSE 5.8 mph 11.9 mph 98 % 2.3 in
20:19 2.8 °F 3.0 °F 1009.0 in SSE 5.8 mph 5.8 mph 98 % 2.5 in
20:24 2.8 °F 3.0 °F 1009.0 in SSE 5.8 mph 5.8 mph 98 % 2.8 in
20:30 2.8 °F 3.0 °F 1008.0 in SSE 5.8 mph 5.8 mph 98 % 2.8 in
20:35 2.9 °F 3.0 °F 1008.0 in SSE 5.8 mph 5.8 mph 98 % 3.0 in
20:40 2.9 °F 3.0 °F 1008.0 in SSE 5.8 mph 5.8 mph 98 % 3.3 in
20:45 2.9 °F 3.0 °F 1010.0 in SSE 5.8 mph 5.8 mph 98 % 3.0 in
20:50 3.0 °F 3.0 °F 1010.0 in SSE 5.8 mph 5.8 mph 98 % 3.8 in
20:55 3.0 °F 3.0 °F 1010.0 in SSE 5.8 mph 5.8 mph 98 % 3.8 in
21:00 3.0 °F 3.0 °F 1009.0 in SSE 5.8 mph 5.8 mph 98 % 4.1 in
21:10 3.0 °F 3.0 °F 1009.0 in South 7.9 mph 7.9 mph 98 % 4.3 in
21:15 3.0 °F 3.0 °F 1008.0 in South 7.9 mph 7.9 mph 98 % 4.3 in
21:20 3.1 °F 3.0 °F 1008.0 in South 7.9 mph 7.9 mph 98 % 4.1 in
21:25 3.1 °F 3.0 °F 1008.0 in South 7.9 mph 7.9 mph 98 % 4.3 in
21:30 3.1 °F 3.0 °F 1008.0 in South 7.9 mph 7.9 mph 98 % 4.6 in
21:35 3.1 °F 3.0 °F 1008.0 in South 7.9 mph 7.9 mph 98 % 4.3 in
21:40 3.1 °F 3.0 °F 1008.0 in South 7.9 mph 7.9 mph 98 % 4.3 in
21:45 3.1 °F 3.0 °F 1007.0 in South 7.9 mph 7.9 mph 98 % 4.3 in
21:50 3.2 °F 3.0 °F 1007.0 in South 7.9 mph 7.9 mph 98 % 4.3 in
21:55 3.2 °F 3.0 °F 1007.0 in South 7.9 mph 7.9 mph 98 % 4.3 in
22:01 3.2 °F 3.0 °F 1007.0 in South 7.9 mph 7.9 mph 98 % 4.1 in
22:06 3.3 °F 3.0 °F 1007.0 in South 7.9 mph 7.9 mph 98 % 3.6 in
22:11 3.3 °F 3.0 °F 1007.0 in South 7.9 mph 7.9 mph 98 % 3.0 in
22:16 3.3 °F 3.0 °F 1007.0 in South 7.9 mph 7.9 mph 98 % 2.8 in
22:21 3.4 °F 3.0 °F 1007.0 in South 7.9 mph 7.9 mph 98 % 2.5 in
22:36 3.5 °F 4.0 °F 1007.0 in South 7.9 mph 7.9 mph 98 % 1.5 in
22:46 3.6 °F 4.0 °F 1007.0 in South 7.9 mph 7.9 mph 98 % 1.0 in
22:51 3.6 °F 4.0 °F 1007.0 in South 7.9 mph 7.9 mph 98 % 1.0 in
22:56 3.7 °F 4.0 °F 1007.0 in South 7.9 mph 7.9 mph 98 % 1.0 in
23:01 3.7 °F 4.0 °F 1007.0 in SSW 2.1 mph 2.1 mph 98 % 0.8 in
23:11 3.8 °F 4.0 °F 1007.0 in SSW 2.1 mph 2.1 mph 98 % 0.8 in
23:16 3.9 °F 4.0 °F 1007.0 in SSW 2.1 mph 2.1 mph 98 % 0.8 in
23:21 4.1 °F 4.0 °F 1007.0 in SSW 2.1 mph 2.1 mph 98 % 0.8 in
23:46 4.5 °F 5.0 °F 1006.0 in SSW 2.1 mph 2.1 mph 98 % 0.5 in
Le Gheer Warneton
Courtoisie de Weather Underground - 2.25 mb

Mise a jour : 24/02/2018 01:14:11
Généré par Cumulus 1.9.4 (1099)